Location: Maccacari
(45.1333°N, 11.1333°E)
Time: 11:22:53
(UTC+00:00)

SR - Pass Details

Date: 24 June 2021
Orbit: 577 x 878 km, 66.7° (Epoch: 24 July)

Event Time Altitude Azimuth Distance (km) Brightness Sun altitude
Rises 21:50:08 0° 332° (NNW) 3,327 ? -18.6°
Reaches altitude 10° 21:53:06 10° 346° (NNW) 2,341 ? -18.8°
Maximum altitude 21:57:27 25° 40° (NE) 1,482 ? -19.1°
Enters shadow 22:01:29 10° 95° (E) 2,161 ? -19.3°
